Tue, 22 Sep 2020 19:04:14 UTC

Information for RPM lzo-2.08-9.fc26.aarch64.rpm

ID9060657
Namelzo
Version2.08
Release9.fc26
Epoch
Archaarch64
SummaryData compression library with very fast (de)compression
DescriptionLZO is a portable lossless data compression library written in ANSI C. It offers pretty fast compression and very fast decompression. Decompression requires no memory. In addition there are slower compression levels achieving a quite competitive compression ratio while still decompressing at this very high speed.
Build Time2017-02-11 05:18:18 GMT
Size65,142
bfa12285ce79ef9f9616e30a727df7bb
LicenseGPLv2+
Buildrootf26-build-7622204-694373
Provides
liblzo2.so.2()(64bit)
lzo = 2.08-9.fc26
lzo(aarch-64) = 2.08-9.fc26
Obsoletes No Obsoletes
Conflicts No Conflicts
Requires
/sbin/ldconfig
/sbin/ldconfig
ld-linux-aarch64.so.1()(64bit)
ld-linux-aarch64.so.1(GLIBC_2.17)(64bit)
libc.so.6()(64bit)
libc.so.6(GLIBC_2.17)(64bit)
rpmlib(CompressedFileNames) <= 3.0.4-1
rpmlib(FileDigests) <= 4.6.0-1
rpmlib(PayloadFilesHavePrefix) <= 4.0-1
rpmlib(PayloadIsXz) <= 5.2-1
rtld(GNU_HASH)
Recommends No Recommends
Suggests No Suggests
Supplements No Supplements
Enhances No Enhances
Files
1 through 8 of 8
Name ascending sort Size
/usr/lib64/liblzo2.so.216
/usr/lib64/liblzo2.so.2.0.0134,736
/usr/share/doc/lzo4,096
/usr/share/doc/lzo/AUTHORS112
/usr/share/doc/lzo/NEWS12,279
/usr/share/doc/lzo/THANKS690
/usr/share/licenses/lzo4,096
/usr/share/licenses/lzo/COPYING18,092
Component of
Page:
1 through 50 of 244657 >>>
Buildroot descending sort Created State
f26-build-12570038-918933 2018-05-29 14:06:53 expired
f26-build-12569905-918933 2018-05-29 13:45:51 expired
f26-build-12569902-918933 2018-05-29 13:45:51 expired
f26-build-12569835-918933 2018-05-29 13:24:31 expired
f26-build-12569820-918933 2018-05-29 13:19:39 expired
f26-build-12569670-918933 2018-05-29 12:59:14 expired
f26-build-12569542-918933 2018-05-29 12:43:17 expired
f26-build-12569471-918933 2018-05-29 12:34:56 expired
f26-build-12569385-918933 2018-05-29 12:21:43 expired
f26-build-12569321-918933 2018-05-29 12:11:26 expired
f26-build-12569268-918933 2018-05-29 12:03:23 expired
f26-build-12569257-918933 2018-05-29 12:00:44 expired
f26-build-12569211-918933 2018-05-29 11:49:01 expired
f26-build-12569084-918933 2018-05-29 11:30:35 expired
f26-build-12569060-918933 2018-05-29 11:27:50 expired
f26-build-12569053-918933 2018-05-29 11:27:10 expired
f26-build-12568868-918933 2018-05-29 11:03:59 expired
f26-build-12568681-918933 2018-05-29 10:41:40 expired
f26-build-12568496-918494 2018-05-29 10:23:12 expired
f26-build-12568445-918494 2018-05-29 10:18:36 expired
f26-build-12568266-918494 2018-05-29 10:02:55 expired
f26-build-12568082-918494 2018-05-29 09:33:25 expired
f26-build-12559123-917680 2018-05-28 13:38:03 expired
f26-build-12559060-917680 2018-05-28 13:20:13 expired
f26-build-12559039-917680 2018-05-28 13:08:00 expired
f26-build-12558854-917680 2018-05-28 12:35:08 expired
f26-build-12558444-917680 2018-05-28 10:46:20 expired
f26-build-12557877-917680 2018-05-28 09:20:15 expired
f26-build-12557759-917680 2018-05-28 09:06:53 expired
f26-build-12557269-917680 2018-05-28 08:17:44 expired
f26-build-12556637-917680 2018-05-28 07:00:08 expired
f26-build-12548982-917680 2018-05-27 19:23:14 expired
f26-build-12548408-917328 2018-05-27 18:42:16 expired
f26-build-12539840-917328 2018-05-27 06:01:56 expired
f26-build-12535239-917328 2018-05-26 21:55:21 expired
f26-build-12534869-917328 2018-05-26 21:40:15 expired
f26-build-12525775-916615 2018-05-25 22:35:43 expired
f26-build-12524920-916615 2018-05-25 19:37:27 expired
f26-build-12524896-916615 2018-05-25 19:34:09 expired
f26-build-12524331-916615 2018-05-25 17:50:49 expired
f26-build-12524272-916615 2018-05-25 17:43:33 expired
f26-build-12524216-916615 2018-05-25 17:36:46 expired
f26-build-12524213-916615 2018-05-25 17:36:45 expired
f26-build-12524212-916615 2018-05-25 17:36:44 expired
f26-build-12524211-916615 2018-05-25 17:36:44 expired
f26-build-12524200-916615 2018-05-25 17:36:29 expired
f26-build-12524196-916615 2018-05-25 17:35:39 expired
f26-build-12524194-916615 2018-05-25 17:35:17 expired
f26-build-12524189-916615 2018-05-25 17:35:06 expired
f26-build-12524188-916615 2018-05-25 17:35:02 expired